Hourly Data Report for July 22, 2021

ST. JOHN'S INTL A
NEWFOUNDLAND
Current Station Operator: NAVCAN

47°37'07.000" N
52°45'09.000" W
140.50 m
8403505
71801
YYT

Download Data

Hourly Data (July 2021)
Hourly Data Report for July 22, 2021
TIME
LST
Temp Definition
°C
Dew Point Definition
°C
Rel Hum Definition
%
Precip. Amount Definition
mm

Wind Dir Definition
10's deg

Wind Spd Definition
km/h
Visibility Definition
km
Stn Press Definition
kPa
Hmdx Definition


Wind Chill Definition


Weather Definition


00:30 9.2 9.2 100   6 15 0.2 99.93     Fog
01:30 9.0 9.0 100   6 16 0.2 99.88     Fog
02:30 9.0 9.0 100   5 16 0.2 99.86     Fog
03:30 9.1 9.1 100   6 10 0.2 99.90     Fog
04:30 9.2 9.2 100   2 9 0.4 99.96     Fog
05:30 9.3 9.3 100   7 12 0.8 99.93     Fog
06:30 9.6 9.6 100   10 13 0.4 99.92     Fog
07:30 9.9 9.9 100   12 14 0.8 99.89     Drizzle, Fog
08:30 10.2 10.2 100   9 15 2.0 99.90     Drizzle, Fog
09:30 10.6 10.6 100   11 15 2.4 99.86     Drizzle, Fog
10:30 11.0 11.0 100   12 15 2.0 99.83     Drizzle, Fog
11:30 11.6 11.1 97   12 19 4.0 99.79     Drizzle, Fog
12:30 11.5 11.1 98   12 19 4.0 99.73     Fog
13:30 10.9 10.5 97   10 20 4.0 99.67     Fog
14:30 11.5 11.0 96   10 18 1.6 99.61     Fog
15:30 11.1 10.6 97   8 22 1.6 99.55     Fog
16:30 10.9 10.6 98   8 18 0.8 99.54     Drizzle, Fog
17:30 10.5 10.3 99   10 21 0.8 99.50     Drizzle, Fog
18:30 10.2 10.1 99   8 20 0.6 99.46     Drizzle, Fog
19:30 10.3 10.2 99   9 20 0.6 99.47     Drizzle, Fog
20:30 10.2 10.1 99   8 19 0.6 99.48     Drizzle, Fog
21:30 10.3 10.2 100   9 16 0.8 99.44     Drizzle, Fog
22:30 10.3 10.2 100   10 17 0.8 99.43     Drizzle, Fog
23:30 10.3 10.2 100   9 14 0.8 99.47     Drizzle, Fog

Notes on Data Quality.

Legend

  • E = Estimated
  • M = Missing
  • NA = Not Available*
  • [empty] = Indicates an unobserved value
Date modified: